Regional Weather Roundup
Issued by NWS Glasgow, MT

Home | Current Version | Previous Version | Text Only | Print | Product List | Glossary On
Versions: 1 2 3 4 5 6 7 8 9 10 11 12 13 14 15 16 17 18 19 20 21 22 23 24 25 26 27 28 29 30 31 32 33 34 35 36 37 38 39 40 41 42 43 44 45 46 47 48 49 50
000
ASUS45 KGGW 230015
RWRGGW
HOURLY WEATHER ROUNDUP FOR NORTHEAST MONTANA
NATIONAL WEATHER SERVICE GLASGOW MONTANA
500 PM MST MON DEC 22 2014

NOTE: "FAIR" INDICATES FEW OR NO CLOUDS BELOW 12,000 FEET WITH NO
SIGNIFICANT WEATHER AND/OR OBSTRUCTIONS TO VISISBILITY.

NORTHEAST MONTANA


CITY           SKY/WX    TMP DP  RH WIND       PRES   REMARKS
GLASGOW        MIX PCPN  29  22  75 NW21      29.88R
6HR MIN TEMP:  29; 6HR MAX TEMP:  33; 6HR PCP: TRACE;

PLENTYWOOD       N/A     25  23  92 N18G26      N/A
WOLF POINT     LGT SNOW  26  20  77 NW9       29.88R
JORDAN           N/A     36  27  69 NW26G40   29.86R
WINNETT          N/A     35  24  64 W20G29      N/A
SIDNEY         CLOUDY    27  21  80 NW18      29.81R
GLENDIVE       CLOUDY    25  19  80 NW22      29.80R
MALTA            N/A     35  29  78 NW14G23     N/A
SCOBEY           N/A     22  15  75 W18       29.82

FORT PECK REPORTS


CITY           SKY/WX    TMP DP  RH WIND       PRES   REMARKS
FORT PECK        N/A     30  25  81 NW20        N/A
THE PINES        N/A     32  28  85 N9G17       N/A

SOUTHEAST MONTANA


CITY           SKY/WX    TMP DP  RH WIND       PRES   REMARKS
BILLINGS       MOCLDY    37  20  50 NW18      29.93R
MILES CITY     CLOUDY    34  27  75 NW15      29.82R
BAKER          LGT SNOW  25  22  88 NW22G33   29.75R FOG
LIVINGSTON     CLOUDY    32  24  72 SW9       29.99R

CENTRAL MONTANA


CITY           SKY/WX    TMP DP  RH WIND       PRES   REMARKS
HAVRE          PTCLDY    31  25  78 W10       29.99R
LEWISTOWN      CLOUDY    33  23  66 W8        29.97R
GREAT FALLS    MOCLDY    35  25  66 NW15      30.03R
CUT BANK       PTCLDY    30  25  81 W8        30.03R
HELENA         MOCLDY    37  21  52 W15       30.04R
BUTTE          CLOUDY    28  19  69 CALM      30.06R
BOZEMAN        CLOUDY    31  25  78 VRB7      30.04R

WESTERN MONTANA


CITY           SKY/WX    TMP DP  RH WIND       PRES   REMARKS
MISSOULA       CLOUDY    36  25  64 NW9       30.16R
KALISPELL      NOT AVBL

NORTH DAKOTA


CITY           SKY/WX    TMP DP  RH WIND       PRES   REMARKS
WILLISTON      CLOUDY    27  22  81 N16       29.78R
DICKINSON      LGT SNOW  25  21  85 NW17      29.68R FOG
MINOT          CLOUDY    29  26  89 NW15      29.70R
BISMARCK       CLOUDY    31  30  96 N21G28    29.64R

SOUTHERN SASKATCHEWAN


CITY           SKY/WX    TMP DP  RH WIND       PRES   REMARKS
REGINA         FLURRIES  21  19  93 N12       29.87
ESTEVAN        FRZ DRZL  27  25  93 N9        29.77  FOG
SWIFT CURRENT  FLURRIES  19  18  93 NW15      29.90R



USA.gov is the U.S. government's official web portal to all federal, state and local government web resources and services.